Location: Graswijk
(52.9667°N, 6.5500°E)
Time: 08:38:45
(UTC+00:00)

Cosmos 2151 - Pass Details

Date: 15 May 2026
Orbit: 556 x 575 km, 82.5° (Epoch: 6 June)

Event Time Altitude Azimuth Distance (km) Brightness Sun altitude
Rises 20:48:36 0° 346° (NNW) 2,777 7.8 -10.0°
Reaches altitude 10° 20:50:49 10° 342° (NNW) 1,872 6.8 -10.2°
Maximum altitude 20:54:52 57° 264° (W) 666 3.4 -10.6°
Drops below altitude 10° 20:58:51 10° 186° (S) 1,846 5.1 -10.9°
Enters shadow 20:59:09 - 185° (S) 1,967 5.2 -10.9°
